Location: Unspecified
(0.0000°N, 0.0000°E)
Time: 12:12:26
(UTC+00:00)

LightSail 2 - Pass Details

Date: 11 December 2019
Orbit: 696 x 729 km, 24.0° (Epoch: 10 December)

Event Time Altitude Azimuth Distance (km) Brightness Sun altitude
Rises 18:34:35 0° 322° (NW) 3,102 8.6 -9.5°
Reaches altitude 10° 18:38:01 10° 345° (NNW) 2,176 7.6 -10.3°
Maximum altitude 18:40:59 15° 21° (NNE) 1,833 6.9 -11.0°
Enters shadow 18:42:49 13° 44° (NE) 1,965 6.9 -11.4°
